TIANMU-1 05

Last updated on Sun Oct 26 2025 00:02:30 GMT+0000 (Coordinated Universal Time)

1 55975U 23039C 25298.51388148 .00019259 00000+0 50132-3 0 9991 2 55975 97.5093 99.5950 0002585 240.1729 119.9259 15.38934688144626
UTC large
Height (km)
Speed (km/s)
/
Latitude / Longitude
Inclination (degrees)
Orbital Period (minutes)
Azimuth
Elevation
Range (km)
Doppler Factor

Next 0 passes for location: London (51.5072 / 0.1276)

Sorry there are no passes over London.